Time,TemperatureF,DewpointF,PressureIn,WindDirection,WindDirectionDegrees,WindSpeedMPH,WindSpeedGustMPH,Humidity,HourlyPrecipIn,Conditions,Clouds,dailyrainin,SolarRadiationWatts/m^2,SoftwareType,DateUTC
2013-03-15 00:02:00,23.0,21.0,-100.00,ESE,107,0.0,0.0,92,0.00,,,0.01,0.000000,,2013-03-15 05:02:00,
2013-03-15 00:12:00,23.0,21.0,-100.00,ESE,107,0.0,0.0,92,0.00,,,0.01,0.000000,,2013-03-15 05:12:00,
2013-03-15 00:32:00,24.0,22.0,-100.00,SSW,193,0.0,2.0,93,0.00,,,0.01,0.000000,,2013-03-15 05:32:00,
2013-03-15 00:42:00,24.0,22.0,-100.00,SSW,193,0.0,2.0,93,0.00,,,0.01,0.000000,,2013-03-15 05:42:00,
2013-03-15 00:52:00,24.0,22.0,-100.00,SSW,193,0.0,2.0,93,0.00,,,0.01,0.000000,,2013-03-15 05:52:00,
2013-03-15 01:02:00,24.0,22.0,-100.00,SSW,193,0.0,2.0,93,0.00,,,0.01,0.000000,,2013-03-15 06:02:00,
2013-03-15 01:12:00,24.0,22.0,-100.00,SSW,193,0.0,2.0,93,0.00,,,0.01,0.000000,,2013-03-15 06:12:00,
2013-03-15 01:33:00,26.0,24.0,-100.00,WSW,243,0.0,4.0,91,0.00,,,0.01,0.000000,,2013-03-15 06:33:00,
2013-03-15 01:42:00,26.0,24.0,-100.00,WSW,243,0.0,4.0,91,0.00,,,0.01,0.000000,,2013-03-15 06:42:00,
2013-03-15 01:53:00,26.0,24.0,-100.00,WSW,243,0.0,4.0,91,0.00,,,0.01,0.000000,,2013-03-15 06:53:00,
2013-03-15 02:02:00,26.0,24.0,-100.00,WSW,243,0.0,4.0,91,0.00,,,0.01,0.000000,,2013-03-15 07:02:00,
2013-03-15 02:12:00,26.0,24.0,-100.00,WSW,243,0.0,4.0,91,0.00,,,0.01,0.000000,,2013-03-15 07:12:00,
2013-03-15 02:42:00,24.0,22.0,-100.00,WSW,239,0.0,2.0,90,0.00,,,0.01,0.000000,,2013-03-15 07:42:00,
2013-03-15 02:52:00,24.0,22.0,-100.00,WSW,239,0.0,2.0,90,0.00,,,0.01,0.000000,,2013-03-15 07:52:00,
2013-03-15 03:02:00,24.0,22.0,-100.00,WSW,239,0.0,2.0,90,0.00,,,0.01,0.000000,,2013-03-15 08:02:00,
2013-03-15 03:12:00,24.0,22.0,-100.00,WSW,239,0.0,2.0,90,0.00,,,0.01,0.000000,,2013-03-15 08:12:00,
2013-03-15 03:42:00,25.0,23.0,-100.00,NNE,27,0.0,3.0,93,0.00,,,0.01,0.000000,,2013-03-15 08:42:00,
2013-03-15 03:52:00,25.0,23.0,-100.00,NNE,27,0.0,3.0,93,0.00,,,0.01,0.000000,,2013-03-15 08:52:00,
2013-03-15 04:02:00,25.0,23.0,-100.00,NNE,27,0.0,3.0,93,0.00,,,0.01,0.000000,,2013-03-15 09:02:00,
2013-03-15 04:12:00,25.0,23.0,-100.00,NNE,27,0.0,3.0,93,0.00,,,0.01,0.000000,,2013-03-15 09:12:00,
2013-03-15 04:33:00,26.0,24.0,-100.00,SW,216,1.0,2.0,91,0.00,,,0.01,0.000000,,2013-03-15 09:33:00,
2013-03-15 04:43:00,26.0,24.0,-100.00,SW,216,1.0,2.0,91,0.00,,,0.01,0.000000,,2013-03-15 09:43:00,
2013-03-15 04:53:00,26.0,24.0,-100.00,SW,216,1.0,2.0,91,0.00,,,0.01,0.000000,,2013-03-15 09:53:00,
2013-03-15 05:03:00,26.0,24.0,-100.00,SW,216,1.0,2.0,91,0.00,,,0.01,0.000000,,2013-03-15 10:03:00,
2013-03-15 05:12:00,26.0,24.0,-100.00,SW,216,1.0,2.0,91,0.00,,,0.01,0.000000,,2013-03-15 10:12:00,
2013-03-15 05:33:00,28.0,25.0,-100.00,West,270,1.0,3.0,89,0.00,,,0.01,0.000000,,2013-03-15 10:33:00,
2013-03-15 05:43:00,28.0,25.0,-100.00,West,270,1.0,3.0,89,0.00,,,0.01,0.000000,,2013-03-15 10:43:00,
2013-03-15 05:52:00,28.0,25.0,-100.00,West,270,1.0,3.0,89,0.00,,,0.01,0.000000,,2013-03-15 10:52:00,
2013-03-15 06:03:00,28.0,25.0,-100.00,West,270,1.0,3.0,89,0.00,,,0.01,0.000000,,2013-03-15 11:03:00,
2013-03-15 06:12:00,28.0,25.0,-100.00,West,270,1.0,3.0,89,0.00,,,0.01,0.000000,,2013-03-15 11:12:00,
2013-03-15 06:32:00,30.0,28.0,-100.00,North,353,3.0,5.0,94,0.00,,,0.01,0.000000,,2013-03-15 11:32:00,
2013-03-15 06:42:00,30.0,28.0,-100.00,North,353,3.0,5.0,94,0.00,,,0.01,0.000000,,2013-03-15 11:42:00,
2013-03-15 06:52:00,30.0,28.0,-100.00,North,353,3.0,5.0,94,0.00,,,0.01,0.000000,,2013-03-15 11:52:00,
2013-03-15 07:02:00,30.0,28.0,-100.00,North,353,3.0,5.0,94,0.00,,,0.01,0.000000,,2013-03-15 12:02:00,
2013-03-15 07:12:00,30.0,28.0,-100.00,North,353,3.0,5.0,94,0.00,,,0.01,0.000000,,2013-03-15 12:12:00,
2013-03-15 07:42:00,30.0,28.0,-100.00,NNE,27,4.0,8.0,94,0.00,,,0.01,0.000000,,2013-03-15 12:42:00,
2013-03-15 07:52:00,30.0,28.0,-100.00,NNE,27,4.0,8.0,94,0.00,,,0.01,0.000000,,2013-03-15 12:52:00,
2013-03-15 08:02:00,30.0,28.0,-100.00,NNE,27,4.0,8.0,94,0.00,,,0.01,0.000000,,2013-03-15 13:02:00,
2013-03-15 08:12:00,30.0,28.0,-100.00,NNE,27,4.0,8.0,94,0.00,,,0.01,0.000000,,2013-03-15 13:12:00,
2013-03-15 08:42:00,31.0,29.0,-100.00,NE,38,4.0,8.0,92,0.00,,,0.01,9.000000,,2013-03-15 13:42:00,
2013-03-15 08:52:00,31.0,29.0,-100.00,NE,38,4.0,8.0,92,0.00,,,0.01,9.000000,,2013-03-15 13:52:00,
2013-03-15 09:02:00,31.0,29.0,-100.00,NE,38,4.0,8.0,92,0.00,,,0.01,9.000000,,2013-03-15 14:02:00,
2013-03-15 09:12:00,31.0,29.0,-100.00,NE,38,4.0,8.0,92,0.00,,,0.01,9.000000,,2013-03-15 14:12:00,
2013-03-15 09:42:00,31.0,27.0,-100.00,NE,54,6.0,13.0,85,0.00,,,0.01,38.000000,,2013-03-15 14:42:00,
2013-03-15 09:53:00,31.0,27.0,-100.00,NE,54,6.0,13.0,85,0.00,,,0.01,38.000000,,2013-03-15 14:53:00,
2013-03-15 10:02:00,31.0,27.0,-100.00,NE,54,6.0,13.0,85,0.00,,,0.01,38.000000,,2013-03-15 15:02:00,
2013-03-15 10:13:00,31.0,27.0,-100.00,NE,54,6.0,13.0,85,0.00,,,0.01,38.000000,,2013-03-15 15:13:00,
2013-03-15 10:43:00,33.0,26.0,-100.00,NE,42,5.0,13.0,76,0.00,,,0.01,135.000000,,2013-03-15 15:43:00,
2013-03-15 10:53:00,33.0,26.0,-100.00,NE,42,5.0,13.0,76,0.00,,,0.01,135.000000,,2013-03-15 15:53:00,
2013-03-15 11:03:00,33.0,26.0,-100.00,NE,42,5.0,13.0,76,0.00,,,0.01,135.000000,,2013-03-15 16:03:00,
2013-03-15 11:12:00,33.0,26.0,-100.00,NE,42,5.0,13.0,76,0.00,,,0.01,135.000000,,2013-03-15 16:12:00,
2013-03-15 11:32:00,34.0,20.0,-100.00,ENE,58,8.0,16.0,57,0.04,,,0.05,403.000000,,2013-03-15 16:32:00,
2013-03-15 11:42:00,34.0,20.0,-100.00,ENE,58,8.0,16.0,57,0.04,,,0.05,403.000000,,2013-03-15 16:42:00,
2013-03-15 11:52:00,34.0,20.0,-100.00,ENE,58,8.0,16.0,57,0.04,,,0.05,403.000000,,2013-03-15 16:52:00,
2013-03-15 12:02:00,34.0,20.0,-100.00,ENE,58,8.0,16.0,57,0.04,,,0.05,403.000000,,2013-03-15 17:02:00,
2013-03-15 12:12:00,34.0,20.0,-100.00,ENE,58,8.0,16.0,57,0.04,,,0.05,403.000000,,2013-03-15 17:12:00,
2013-03-15 12:43:00,33.0,18.0,-100.00,NE,40,6.0,16.0,53,0.00,,,0.04,384.000000,,2013-03-15 17:43:00,
2013-03-15 12:53:00,33.0,18.0,-100.00,NE,40,6.0,16.0,53,0.00,,,0.04,384.000000,,2013-03-15 17:53:00,
2013-03-15 13:02:00,33.0,18.0,-100.00,NE,40,6.0,16.0,53,0.00,,,0.04,384.000000,,2013-03-15 18:02:00,
2013-03-15 13:12:00,33.0,18.0,-100.00,NE,40,6.0,16.0,53,0.00,,,0.04,384.000000,,2013-03-15 18:12:00,
2013-03-15 13:42:00,33.0,16.0,-100.00,NE,34,5.0,15.0,50,0.00,,,0.04,230.000000,,2013-03-15 18:42:00,
2013-03-15 13:52:00,33.0,16.0,-100.00,NE,34,5.0,15.0,50,0.00,,,0.04,230.000000,,2013-03-15 18:52:00,
2013-03-15 14:02:00,33.0,16.0,-100.00,NE,34,5.0,15.0,50,0.00,,,0.04,230.000000,,2013-03-15 19:02:00,
2013-03-15 14:12:00,33.0,16.0,-100.00,NE,34,5.0,15.0,50,0.00,,,0.04,230.000000,,2013-03-15 19:12:00,
2013-03-15 14:42:00,33.0,15.0,-100.00,ENE,65,6.0,14.0,47,0.00,,,-99.99,275.000000,,2013-03-15 19:42:00,
2013-03-15 14:52:00,33.0,15.0,-100.00,ENE,65,6.0,14.0,47,0.00,,,-99.99,275.000000,,2013-03-15 19:52:00,
2013-03-15 15:02:00,33.0,15.0,-100.00,ENE,65,6.0,14.0,47,0.00,,,-99.99,275.000000,,2013-03-15 20:02:00,
2013-03-15 15:12:00,33.0,15.0,-100.00,ENE,65,6.0,14.0,47,0.00,,,-99.99,275.000000,,2013-03-15 20:12:00,
2013-03-15 15:42:00,32.0,15.0,-100.00,ENE,62,6.0,13.0,48,0.00,,,0.04,200.000000,,2013-03-15 20:42:00,
2013-03-15 15:52:00,32.0,15.0,-100.00,ENE,62,6.0,13.0,48,0.00,,,0.04,200.000000,,2013-03-15 20:52:00,
2013-03-15 16:02:00,32.0,15.0,-100.00,ENE,62,6.0,13.0,48,0.00,,,0.04,200.000000,,2013-03-15 21:02:00,
2013-03-15 16:12:00,32.0,15.0,-100.00,ENE,62,6.0,13.0,48,0.00,,,0.04,200.000000,,2013-03-15 21:12:00,
2013-03-15 16:43:00,31.0,14.0,-100.00,NE,54,6.0,12.0,49,0.00,,,0.04,129.000000,,2013-03-15 21:43:00,
2013-03-15 16:53:00,31.0,14.0,-100.00,NE,54,6.0,12.0,49,0.00,,,0.04,129.000000,,2013-03-15 21:53:00,
2013-03-15 17:03:00,31.0,14.0,-100.00,NE,54,6.0,12.0,49,0.00,,,0.04,129.000000,,2013-03-15 22:03:00,
2013-03-15 17:13:00,31.0,14.0,-100.00,NE,54,6.0,12.0,49,0.00,,,0.04,129.000000,,2013-03-15 22:13:00,
2013-03-15 17:42:00,30.0,13.0,-100.00,ENE,70,8.0,15.0,49,0.00,,,0.04,110.000000,,2013-03-15 22:42:00,
2013-03-15 17:53:00,30.0,13.0,-100.00,ENE,70,8.0,15.0,49,0.00,,,0.04,110.000000,,2013-03-15 22:53:00,
2013-03-15 18:02:00,30.0,13.0,-100.00,ENE,70,8.0,15.0,49,0.00,,,0.04,110.000000,,2013-03-15 23:02:00,
2013-03-15 18:12:00,30.0,13.0,-100.00,ENE,70,8.0,15.0,49,0.00,,,0.04,110.000000,,2013-03-15 23:12:00,
2013-03-15 18:42:00,27.0,12.0,-100.00,ENE,61,7.0,15.0,52,0.00,,,0.04,72.000000,,2013-03-15 23:42:00,
2013-03-15 18:53:00,27.0,12.0,-100.00,ENE,61,7.0,15.0,52,0.00,,,0.04,72.000000,,2013-03-15 23:53:00,
2013-03-15 19:02:00,27.0,12.0,-100.00,ENE,61,7.0,15.0,52,0.00,,,0.04,72.000000,,2013-03-16 00:02:00,
2013-03-15 19:12:00,27.0,12.0,-100.00,ENE,61,7.0,15.0,52,0.00,,,0.04,72.000000,,2013-03-16 00:12:00,
2013-03-15 19:42:00,24.0,17.0,-100.00,NNE,32,6.0,13.0,73,0.00,,,0.04,12.000000,,2013-03-16 00:42:00,
2013-03-15 19:52:00,24.0,17.0,-100.00,NNE,32,6.0,13.0,73,0.00,,,0.04,12.000000,,2013-03-16 00:52:00,
2013-03-15 20:02:00,24.0,17.0,-100.00,NNE,32,6.0,13.0,73,0.00,,,0.04,12.000000,,2013-03-16 01:02:00,
2013-03-15 20:12:00,24.0,17.0,-100.00,NNE,32,6.0,13.0,73,0.00,,,0.04,12.000000,,2013-03-16 01:12:00,
2013-03-15 20:42:00,22.0,19.0,-100.00,NE,53,5.0,13.0,89,0.00,,,0.04,0.000000,,2013-03-16 01:42:00,
2013-03-15 20:53:00,22.0,19.0,-100.00,NE,53,5.0,13.0,89,0.00,,,0.04,0.000000,,2013-03-16 01:53:00,
2013-03-15 21:02:00,22.0,19.0,-100.00,NE,53,5.0,13.0,89,0.00,,,0.04,0.000000,,2013-03-16 02:02:00,
2013-03-15 21:12:00,22.0,19.0,-100.00,NE,53,5.0,13.0,89,0.00,,,0.04,0.000000,,2013-03-16 02:12:00,
2013-03-15 21:43:00,21.0,18.0,-100.00,NE,54,6.0,11.0,87,0.00,,,0.04,0.000000,,2013-03-16 02:43:00,
2013-03-15 21:52:00,21.0,18.0,-100.00,NE,54,6.0,11.0,87,0.00,,,0.04,0.000000,,2013-03-16 02:52:00,
2013-03-15 22:02:00,21.0,18.0,-100.00,NE,54,6.0,11.0,87,0.00,,,0.04,0.000000,,2013-03-16 03:02:00,
2013-03-15 22:12:00,21.0,18.0,-100.00,NE,54,6.0,11.0,87,0.00,,,0.04,0.000000,,2013-03-16 03:12:00,
2013-03-15 22:43:00,21.0,17.0,-100.00,ENE,59,6.0,13.0,83,0.00,,,0.04,0.000000,,2013-03-16 03:43:00,
2013-03-15 22:53:00,21.0,17.0,-100.00,ENE,59,6.0,13.0,83,0.00,,,0.04,0.000000,,2013-03-16 03:53:00,
2013-03-15 23:02:00,21.0,17.0,-100.00,ENE,59,6.0,13.0,83,0.00,,,0.04,0.000000,,2013-03-16 04:02:00,
2013-03-15 23:12:00,21.0,17.0,-100.00,ENE,59,6.0,13.0,83,0.00,,,0.04,0.000000,,2013-03-16 04:12:00,
2013-03-15 23:33:00,20.0,16.0,-100.00,NE,52,5.0,12.0,84,0.00,,,0.04,0.000000,,2013-03-16 04:33:00,
2013-03-15 23:43:00,20.0,16.0,-100.00,NE,52,5.0,12.0,84,0.00,,,0.04,0.000000,,2013-03-16 04:43:00,
2013-03-15 23:53:00,20.0,16.0,-100.00,NE,52,5.0,12.0,84,0.00,,,0.04,0.000000,,2013-03-16 04:53:00,